Weather History for Denver Centennial, CO

Change the Weather History Date:

Wednesday, October 24, 2012

  Actual Average Record
Temperature  
Mean Temperature 41 °F -  
Max Temperature 54 °F 58 °F 79 °F (2011)
Min Temperature 27 °F 31 °F 17 °F (1997)
Degree Days  
Heating Degree Days 24    
Month to date heating degree days 346  
Moisture  
Dew Point 34 °F    
Average Humidity 75    
Maximum Humidity 100    
Minimum Humidity 50    
Precipitation  
Precipitation 0.32 in - - ()
Month to date precipitation 0.61  
Year to date precipitation 13.40  
Sea Level Pressure  
Sea Level Pressure 29.84 in    
Wind  
Wind Speed 7 mph (NNE)    
Max Wind Speed 23 mph    
Max Gust Speed 31 mph    
Visibility 8 miles    
Events Rain , Snow    
Averages and records for this station are not official NWS values.
T = Trace of Precipitation, MM = Missing Value Source: NWS Daily Summary

Daily Weather History Graph

Daily Weather History Graph

Search for Another Location

Airport:

Trip Planner

Search our weather history database for the weather conditions in past years. The results will help you decide how hot, cold, wet, or windy it might be!

Date:

Astronomy

Oct. 24, 2012 Rise Set
Actual Time 7:19 AM MDT 6:06 PM MDT
Civil Twilight 6:51 AM MDT 6:34 PM MDT
Nautical Twilight 6:20 AM MDT 7:05 PM MDT
Astronomical Twilight 5:49 AM MDT 7:37 PM MDT
Moon 3:23 PM MDT (10/24) 2:18 AM MDT (10/24)
Length of Visible Light 11h 42m
Length of Day
10h 47m
Waxing Gibbous, 76% of the Moon is Illuminated
Oct 24
Waxing Gibbous
Oct 29
Full
Nov 6
Last Quarter
Nov 13
New
Nov 20
First Quarter

Hourly Weather History & Observations

Time (MDT) Temp. Windchill Dew Point Humidity Pressure Visibility Wind Dir Wind Speed Gust Speed Precip Events Conditions
12:53 AM 43.0 °F 39.5 °F 32.0 °F 65% 29.81 in 10.0 mi North 5.8 mph - N/A   Scattered Clouds
1:53 AM 44.1 °F 38.1 °F 30.0 °F 58% 29.80 in 10.0 mi North 11.5 mph - N/A   Mostly Cloudy
2:53 AM 39.0 °F - 28.9 °F 67% 29.82 in 10.0 mi Calm Calm - N/A   Mostly Cloudy
3:20 AM 39.2 °F - 30.2 °F 70% 29.94 in 10.0 mi Calm Calm - N/A   Mostly Cloudy
3:53 AM 43.0 °F 41.3 °F 30.9 °F 62% 29.79 in 10.0 mi NW 3.5 mph - N/A   Overcast
4:53 AM 42.1 °F - 30.9 °F 65% 29.80 in 10.0 mi Calm Calm - N/A   Overcast
5:53 AM 43.0 °F 39.5 °F 30.0 °F 60% 29.81 in 10.0 mi North 5.8 mph - N/A   Overcast
6:53 AM 43.0 °F 40.3 °F 30.0 °F 60% 29.83 in 10.0 mi North 4.6 mph - N/A   Overcast
7:53 AM 43.0 °F 39.5 °F 30.9 °F 62% 29.84 in 10.0 mi North 5.8 mph - N/A   Overcast
8:53 AM 43.0 °F 40.3 °F 32.0 °F 65% 29.84 in 10.0 mi North 4.6 mph - N/A   Mostly Cloudy
10:53 AM 48.0 °F - 36.0 °F 63% 29.82 in 10.0 mi East 4.6 mph - N/A   Mostly Cloudy
11:53 AM 48.0 °F - 35.1 °F 61% 29.81 in 10.0 mi Variable 3.5 mph - N/A   Mostly Cloudy
12:10 PM 48.2 °F - 35.6 °F 62% 29.84 in 10.0 mi Variable 4.6 mph - N/A   Mostly Cloudy
12:53 PM 48.9 °F - 35.1 °F 59% 29.76 in 10.0 mi SSE 3.5 mph - N/A   Scattered Clouds
1:53 PM 53.1 °F - 36.0 °F 52% 29.68 in 10.0 mi Variable 6.9 mph - N/A   Scattered Clouds
2:53 PM 51.1 °F - 36.0 °F 56% 29.70 in 10.0 mi North 15.0 mph - N/A   Overcast
3:53 PM 46.0 °F 39.9 °F 37.0 °F 71% 29.73 in 10.0 mi NNE 13.8 mph - N/A   Overcast
4:53 PM 43.0 °F 37.7 °F 39.0 °F 86% 29.78 in 8.0 mi NNE 9.2 mph - 0.00 in Rain Light Rain
5:14 PM 42.8 °F 37.0 °F 39.2 °F 87% 29.81 in 8.0 mi NNE 10.4 mph - 0.00 in Rain Light Rain
5:25 PM 42.8 °F 37.0 °F 39.2 °F 87% 29.80 in 4.0 mi NNE 10.4 mph - 0.01 in Rain Rain
5:53 PM 41.0 °F 33.9 °F 39.9 °F 96% 29.80 in 7.0 mi NNE 12.7 mph - 0.04 in Rain Light Rain
6:53 PM 39.0 °F 30.6 °F 39.0 °F 100% 29.86 in 5.0 mi North 15.0 mph - 0.05 in Rain Light Rain
7:28 PM 37.4 °F 27.8 °F 37.4 °F 100% 29.88 in 5.0 mi North 17.3 mph - 0.04 in Rain , Snow Light Snow
7:46 PM 33.8 °F 22.8 °F 33.8 °F 100% 29.92 in 1.5 mi North 18.4 mph - 0.07 in Rain , Snow Light Snow
7:53 PM 33.1 °F 21.9 °F 33.1 °F 100% 29.95 in 0.8 mi North 18.4 mph - 0.08 in Snow Light Snow
8:53 PM 30.9 °F 20.2 °F 30.9 °F 100% 30.01 in 0.8 mi North 15.0 mph 25.3 mph 0.04 in Snow Light Snow
10:53 PM 28.9 °F 19.2 °F 28.9 °F 100% 30.05 in 0.8 mi NNE 11.5 mph - 0.02 in Snow Light Snow
11:53 PM 28.0 °F 18.1 °F 27.0 °F 96% 30.07 in 0.8 mi North 11.5 mph - 0.05 in Snow Light Snow